Location: Glen Avon
(34.0117°N, 117.4848°W)
Time: 20:13:07
(UTC+00:00)

Cosmos 2278 Rocket - Pass Details

Date: 01 August 2021
Orbit: 839 x 847 km, 71.0° (Epoch: 20 September)

Event Time Altitude Azimuth Distance (km) Brightness Sun altitude
Exits shadow 12:17:11 - 211° (SSW) 2,707 4.3 -9.1°
Reaches altitude 10° 12:17:53 10° 213° (SSW) 2,446 4.1 -9.0°
Maximum altitude 12:23:25 60° 293° (WNW) 955 2.3 -8.0°
Drops below altitude 10° 12:29:01 10° 13° (NNE) 2,465 5.2 -7.0°
Sets 12:31:31 0° 17° (NNE) 3,404 6.1 -6.5°
